When you browse on this site, cookies collect data to enhance your experience and personalize the content and advertising you see.
Visit our Privacy Policy to learn more. By continuing to use the site, you agree to this use of cookies and data.
  • In France
  • List of Countries
  • For 7 days
  • Water Temperature
  • Satellite Maps
  • Weather Map
  • Weather Widgets
  • user-avatar
    Login

    Hourly Weather Giumri

    Today, 17 June, Monday

    Time Temperature Precipitation Wind Pressure Humidity
    00:00 +15°C° 0.4 mm 2 mps 633 mmHg 75%
    01:00 +15°C° 0.1 mm 1 mps 633 mmHg 75%
    02:00 +15°C° 0.1 mm 1 mps 632 mmHg 75%
    03:00 +15°C° 0.1 mm 1 mps 632 mmHg 74%
    04:00 +15°C° 0.1 mm 1 mps 632 mmHg 74%
    05:00 +16°C° 0.1 mm 1 mps 633 mmHg 74%
    06:00 +16°C° 0.1 mm 0 mps 633 mmHg 74%
    07:00 +20°C° 0.2 mm 1 mps 633 mmHg 69%
    08:00 +22°C° 0.2 mm 1 mps 634 mmHg 63%
    09:00 +24°C° 0.2 mm 1 mps 634 mmHg 58%
    10:00 +25°C° 0.3 mm 1 mps 634 mmHg 54%
    11:00 +26°C° 0.3 mm 1 mps 635 mmHg 50%
    12:00 +27°C° 0.3 mm 2 mps 635 mmHg 46%
    13:00 +26°C° 0.3 mm 2 mps 634 mmHg 48%
    14:00 +26°C° 0.3 mm 3 mps 634 mmHg 49%
    15:00 +26°C° 0.3 mm 4 mps 634 mmHg 51%
    16:00 +22°C° 1.9 mm 3 mps 634 mmHg 60%
    17:00 +20°C° 1.9 mm 3 mps 633 mmHg 69%
    18:00 +18°C° 1.9 mm 2 mps 632 mmHg 77%
    19:00 +17°C° 0.3 mm 2 mps 633 mmHg 79%
    20:00 +16°C° 0.3 mm 2 mps 633 mmHg 81%
    21:00 +14°C° 0.3 mm 3 mps 633 mmHg 83%
    22:00 +15°C° 0 mm 2 mps 633 mmHg 84%
    23:00 +14°C° 0 mm 1 mps 633 mmHg 85%

    Tomorrow, 18 June, Tuesday

    Time Temperature Precipitation Wind Pressure Humidity
    00:00 +14°C° 0 mm 1 mps 633 mmHg 86%
    01:00 +13°C° 0 mm 1 mps 633 mmHg 85%
    02:00 +13°C° 0 mm 1 mps 632 mmHg 85%
    03:00 +13°C° 0 mm 1 mps 632 mmHg 84%
    04:00 +14°C° 0 mm 1 mps 632 mmHg 83%
    05:00 +15°C° 0 mm 1 mps 633 mmHg 81%
    06:00 +15°C° 0 mm 0 mps 633 mmHg 80%
    07:00 +18°C° 0.2 mm 1 mps 633 mmHg 75%
    08:00 +20°C° 0.2 mm 1 mps 634 mmHg 69%
    09:00 +22°C° 0.2 mm 1 mps 634 mmHg 64%
    10:00 +23°C° 0.3 mm 1 mps 634 mmHg 59%
    11:00 +24°C° 0.3 mm 2 mps 634 mmHg 53%
    12:00 +25°C° 0.3 mm 2 mps 634 mmHg 48%
    13:00 +26°C° 0.1 mm 2 mps 634 mmHg 47%
    14:00 +26°C° 0.1 mm 2 mps 634 mmHg 45%
    15:00 +26°C° 0.1 mm 1 mps 634 mmHg 44%
    16:00 +25°C° 0.2 mm 2 mps 634 mmHg 50%
    17:00 +24°C° 0.2 mm 2 mps 634 mmHg 56%
    18:00 +23°C° 0.2 mm 2 mps 633 mmHg 62%
    19:00 +20°C° 0.2 mm 2 mps 633 mmHg 66%
    20:00 +18°C° 0.2 mm 2 mps 633 mmHg 71%
    21:00 +16°C° 0.2 mm 2 mps 633 mmHg 75%
    22:00 +16°C° 0 mm 2 mps 633 mmHg 76%
    23:00 +15°C° 0 mm 2 mps 632 mmHg 78%

    Day after tomorrow, 19 June, Wednesday

    Time Temperature Precipitation Wind Pressure Humidity
    00:00 +14°C° 0 mm 1 mps 632 mmHg 79%
    01:00 +14°C° 0 mm 1 mps 632 mmHg 80%
    02:00 +13°C° 0 mm 1 mps 632 mmHg 81%
    03:00 +13°C° 0 mm 1 mps 631 mmHg 82%
    04:00 +14°C° 0 mm 1 mps 632 mmHg 82%
    05:00 +15°C° 0 mm 1 mps 632 mmHg 82%
    06:00 +15°C° 0 mm 1 mps 632 mmHg 82%
    07:00 +18°C° 0.1 mm 1 mps 633 mmHg 76%
    08:00 +20°C° 0.1 mm 1 mps 633 mmHg 70%
    09:00 +22°C° 0.1 mm 1 mps 634 mmHg 64%
    10:00 +23°C° 0.3 mm 1 mps 634 mmHg 60%
    11:00 +24°C° 0.3 mm 1 mps 634 mmHg 55%
    12:00 +25°C° 0.3 mm 1 mps 634 mmHg 50%
    13:00 +25°C° 0.4 mm 2 mps 634 mmHg 50%
    14:00 +26°C° 0.4 mm 2 mps 634 mmHg 49%
    15:00 +26°C° 0.4 mm 2 mps 634 mmHg 49%
    16:00 +25°C° 0.3 mm 2 mps 633 mmHg 54%
    17:00 +24°C° 0.3 mm 2 mps 633 mmHg 60%
    18:00 +22°C° 0.3 mm 3 mps 633 mmHg 66%
    19:00 +20°C° 0 mm 3 mps 633 mmHg 70%
    20:00 +19°C° 0 mm 2 mps 633 mmHg 73%
    21:00 +17°C° 0 mm 2 mps 632 mmHg 77%
    22:00 +16°C° 0 mm 2 mps 632 mmHg 77%
    23:00 +16°C° 0 mm 2 mps 632 mmHg 77%

    20 June, Thursday

    Time Temperature Precipitation Wind Pressure Humidity
    00:00 +15°C° 0 mm 2 mps 632 mmHg 77%
    01:00 +15°C° 0 mm 2 mps 632 mmHg 78%
    02:00 +15°C° 0 mm 2 mps 631 mmHg 80%
    03:00 +14°C° 0 mm 2 mps 631 mmHg 81%
    04:00 +15°C° 0 mm 2 mps 631 mmHg 80%
    05:00 +16°C° 0 mm 1 mps 632 mmHg 80%
    06:00 +16°C° 0 mm 1 mps 632 mmHg 79%
    07:00 +19°C° 0.2 mm 1 mps 632 mmHg 73%
    08:00 +21°C° 0.2 mm 1 mps 633 mmHg 67%
    09:00 +23°C° 0.2 mm 1 mps 633 mmHg 61%
    10:00 +24°C° 0.4 mm 2 mps 633 mmHg 57%
    11:00 +25°C° 0.4 mm 2 mps 633 mmHg 53%
    12:00 +26°C° 0.4 mm 2 mps 634 mmHg 49%
    13:00 +26°C° 0.6 mm 3 mps 633 mmHg 51%
    14:00 +26°C° 0.6 mm 3 mps 633 mmHg 52%
    15:00 +26°C° 0.6 mm 4 mps 632 mmHg 53%
    16:00 +25°C° 0.3 mm 4 mps 632 mmHg 58%
    17:00 +24°C° 0.3 mm 3 mps 632 mmHg 64%
    18:00 +21°C° 0.3 mm 3 mps 632 mmHg 69%
    19:00 +20°C° 1 mm 2 mps 632 mmHg 74%
    20:00 +18°C° 1 mm 2 mps 632 mmHg 79%
    21:00 +16°C° 1 mm 2 mps 631 mmHg 84%
    22:00 +16°C° 0.3 mm 1 mps 631 mmHg 85%
    23:00 +15°C° 0.3 mm 1 mps 631 mmHg 85%

    21 June, Friday

    Time Temperature Precipitation Wind Pressure Humidity
    00:00 +15°C° 0.3 mm 1 mps 631 mmHg 86%
    01:00 +15°C° 0.7 mm 1 mps 631 mmHg 86%
    02:00 +15°C° 0.7 mm 1 mps 631 mmHg 87%
    03:00 +15°C° 0.7 mm 2 mps 631 mmHg 87%
    04:00 +15°C° 0 mm 1 mps 631 mmHg 86%
    05:00 +16°C° 0 mm 1 mps 631 mmHg 86%
    06:00 +16°C° 0 mm 1 mps 631 mmHg 85%
    07:00 +19°C° 0.2 mm 1 mps 632 mmHg 79%
    08:00 +20°C° 0.2 mm 1 mps 632 mmHg 74%
    09:00 +22°C° 0.2 mm 1 mps 633 mmHg 68%
    10:00 +23°C° 0.8 mm 1 mps 633 mmHg 65%
    11:00 +24°C° 0.8 mm 2 mps 633 mmHg 61%
    12:00 +25°C° 0.8 mm 2 mps 633 mmHg 57%
    13:00 +25°C° 0.7 mm 2 mps 633 mmHg 58%
    14:00 +25°C° 0.7 mm 3 mps 633 mmHg 59%
    15:00 +25°C° 0.7 mm 3 mps 632 mmHg 59%
    16:00 +24°C° 0.6 mm 3 mps 632 mmHg 63%
    17:00 +22°C° 0.6 mm 3 mps 632 mmHg 67%
    18:00 +21°C° 0.6 mm 3 mps 632 mmHg 70%
    19:00 +20°C° 0.2 mm 3 mps 632 mmHg 74%
    20:00 +18°C° 0.2 mm 2 mps 632 mmHg 78%
    21:00 +17°C° 0.2 mm 2 mps 632 mmHg 81%
    22:00 +16°C° 0 mm 2 mps 632 mmHg 83%
    23:00 +15°C° 0 mm 2 mps 632 mmHg 84%

    22 June, Saturday

    Time Temperature Precipitation Wind Pressure Humidity
    00:00 +15°C° 0 mm 2 mps 632 mmHg 86%
    01:00 +14°C° 0 mm 2 mps 632 mmHg 86%
    02:00 +14°C° 0 mm 2 mps 632 mmHg 86%
    03:00 +14°C° 0 mm 2 mps 632 mmHg 87%
    04:00 +15°C° 0 mm 2 mps 632 mmHg 86%
    05:00 +15°C° 0 mm 2 mps 633 mmHg 85%
    06:00 +16°C° 0 mm 1 mps 633 mmHg 84%
    07:00 +17°C° 0.2 mm 2 mps 634 mmHg 79%
    08:00 +19°C° 0.2 mm 2 mps 634 mmHg 74%
    09:00 +21°C° 0.2 mm 2 mps 635 mmHg 69%
    10:00 +23°C° 0.9 mm 2 mps 635 mmHg 67%
    11:00 +24°C° 0.9 mm 3 mps 635 mmHg 65%
    12:00 +24°C° 0.9 mm 3 mps 635 mmHg 63%
    13:00 +24°C° 1 mm 3 mps 635 mmHg 63%
    14:00 +23°C° 1 mm 4 mps 635 mmHg 64%
    15:00 +25°C° 1 mm 4 mps 635 mmHg 64%
    16:00 +22°C° 0.8 mm 4 mps 634 mmHg 69%
    17:00 +21°C° 0.8 mm 4 mps 634 mmHg 73%
    18:00 +20°C° 0.8 mm 4 mps 634 mmHg 78%
    19:00 +19°C° 1.3 mm 3 mps 634 mmHg 81%
    20:00 +17°C° 1.3 mm 3 mps 634 mmHg 85%
    21:00 +16°C° 1.3 mm 3 mps 634 mmHg 89%
    22:00 +14°C° 0.6 mm 3 mps 634 mmHg 89%
    23:00 +15°C° 0.6 mm 2 mps 634 mmHg 89%
    Show more